• In Netherlands
  • List of Countries
  • For 7 days
  • Water Temperature
  • Satellite Maps
  • Weather Map
  • Weather Widgets
  • user-avatar
    Login

    Hourly Weather Galata

    Today, 27 April, Thursday

    Time Temperature Precipitation Wind Pressure Humidity
    00:00 +8°C° 0 mm 3 mps 758 mmHg 80%
    01:00 +8°C° 0 mm 3 mps 757 mmHg 81%
    02:00 +8°C° 0 mm 3 mps 757 mmHg 81%
    03:00 +8°C° 0 mm 3 mps 757 mmHg 81%
    04:00 +8°C° 0 mm 2 mps 757 mmHg 81%
    05:00 +8°C° 0 mm 2 mps 757 mmHg 81%
    06:00 +10°C° 0 mm 3 mps 757 mmHg 75%
    07:00 +12°C° 0 mm 3 mps 757 mmHg 69%
    08:00 +14°C° 0 mm 3 mps 757 mmHg 63%
    09:00 +17°C° 0 mm 3 mps 757 mmHg 60%
    10:00 +18°C° 0 mm 4 mps 757 mmHg 56%
    11:00 +20°C° 0 mm 4 mps 757 mmHg 53%
    12:00 +20°C° 0 mm 4 mps 757 mmHg 53%
    13:00 +20°C° 0 mm 4 mps 757 mmHg 53%
    14:00 +21°C° 0 mm 4 mps 757 mmHg 52%
    15:00 +20°C° 0 mm 4 mps 757 mmHg 55%
    16:00 +19°C° 0 mm 4 mps 757 mmHg 58%
    17:00 +18°C° 0 mm 3 mps 756 mmHg 60%
    18:00 +16°C° 0 mm 3 mps 756 mmHg 65%
    19:00 +13°C° 0 mm 3 mps 757 mmHg 70%
    20:00 +10°C° 0 mm 3 mps 757 mmHg 74%
    21:00 +10°C° 0 mm 3 mps 757 mmHg 74%
    22:00 +10°C° 0 mm 3 mps 757 mmHg 74%
    23:00 +9°C° 0 mm 3 mps 757 mmHg 73%

    Tomorrow, 28 April, Friday

    Time Temperature Precipitation Wind Pressure Humidity
    00:00 +9°C° 0 mm 2 mps 757 mmHg 74%
    01:00 +9°C° 0 mm 2 mps 757 mmHg 75%
    02:00 +9°C° 0 mm 2 mps 756 mmHg 75%
    03:00 +9°C° 0 mm 2 mps 756 mmHg 76%
    04:00 +9°C° 0 mm 2 mps 756 mmHg 76%
    05:00 +9°C° 0 mm 2 mps 756 mmHg 76%
    06:00 +12°C° 0 mm 2 mps 756 mmHg 71%
    07:00 +14°C° 0 mm 2 mps 756 mmHg 65%
    08:00 +17°C° 0 mm 3 mps 756 mmHg 60%
    09:00 +18°C° 0 mm 3 mps 756 mmHg 56%
    10:00 +19°C° 0 mm 4 mps 756 mmHg 53%
    11:00 +21°C° 0 mm 4 mps 756 mmHg 50%
    12:00 +21°C° 0 mm 4 mps 756 mmHg 50%
    13:00 +21°C° 0 mm 4 mps 755 mmHg 50%
    14:00 +21°C° 0 mm 5 mps 755 mmHg 51%
    15:00 +20°C° 0 mm 4 mps 755 mmHg 53%
    16:00 +19°C° 0 mm 4 mps 754 mmHg 56%
    17:00 +18°C° 0 mm 4 mps 754 mmHg 58%
    18:00 +15°C° 0 mm 4 mps 754 mmHg 61%
    19:00 +13°C° 0 mm 4 mps 754 mmHg 64%
    20:00 +11°C° 0 mm 3 mps 754 mmHg 67%
    21:00 +11°C° 0 mm 3 mps 754 mmHg 67%
    22:00 +11°C° 0 mm 3 mps 754 mmHg 67%
    23:00 +11°C° 0 mm 3 mps 754 mmHg 67%

    Day after tomorrow, 29 April, Saturday

    Time Temperature Precipitation Wind Pressure Humidity
    00:00 +11°C° 0 mm 3 mps 754 mmHg 68%
    01:00 +11°C° 0 mm 3 mps 753 mmHg 70%
    02:00 +10°C° 0 mm 3 mps 753 mmHg 72%
    03:00 +10°C° 0 mm 3 mps 753 mmHg 72%
    04:00 +10°C° 0 mm 3 mps 753 mmHg 73%
    05:00 +10°C° 0 mm 3 mps 753 mmHg 74%
    06:00 +12°C° 0 mm 3 mps 753 mmHg 69%
    07:00 +14°C° 0 mm 3 mps 753 mmHg 65%
    08:00 +17°C° 0 mm 3 mps 753 mmHg 60%
    09:00 +18°C° 0 mm 3 mps 753 mmHg 58%
    10:00 +20°C° 0 mm 4 mps 753 mmHg 56%
    11:00 +21°C° 0 mm 4 mps 753 mmHg 54%
    12:00 +22°C° 0 mm 4 mps 752 mmHg 53%
    13:00 +23°C° 0 mm 4 mps 752 mmHg 53%
    14:00 +23°C° 0 mm 4 mps 752 mmHg 52%
    15:00 +23°C° 0 mm 4 mps 751 mmHg 55%
    16:00 +22°C° 0 mm 5 mps 751 mmHg 58%
    17:00 +21°C° 0 mm 5 mps 750 mmHg 60%
    18:00 +19°C° 0 mm 5 mps 751 mmHg 64%
    19:00 +17°C° 0 mm 4 mps 751 mmHg 67%
    20:00 +14°C° 0 mm 4 mps 751 mmHg 70%
    21:00 +14°C° 0 mm 4 mps 751 mmHg 73%
    22:00 +13°C° 0 mm 4 mps 751 mmHg 75%
    23:00 +12°C° 0 mm 4 mps 751 mmHg 78%

    30 April, Sunday

    Time Temperature Precipitation Wind Pressure Humidity
    00:00 +13°C° 0 mm 4 mps 751 mmHg 81%
    01:00 +13°C° 0 mm 4 mps 752 mmHg 84%
    02:00 +13°C° 0 mm 4 mps 752 mmHg 87%
    03:00 +12°C° 0 mm 4 mps 752 mmHg 85%
    04:00 +12°C° 0 mm 5 mps 752 mmHg 82%
    05:00 +12°C° 0 mm 5 mps 753 mmHg 80%
    06:00 +13°C° 0 mm 5 mps 753 mmHg 77%
    07:00 +13°C° 0 mm 6 mps 754 mmHg 74%
    08:00 +14°C° 0 mm 6 mps 754 mmHg 71%
    09:00 +16°C° 0 mm 6 mps 754 mmHg 68%
    10:00 +17°C° 0 mm 6 mps 755 mmHg 65%
    11:00 +19°C° 0 mm 5 mps 755 mmHg 62%
    12:00 +20°C° 0 mm 5 mps 755 mmHg 62%
    13:00 +20°C° 0 mm 5 mps 755 mmHg 62%
    14:00 +21°C° 0 mm 4 mps 755 mmHg 62%
    15:00 +20°C° 0 mm 4 mps 755 mmHg 66%
    16:00 +19°C° 0 mm 4 mps 755 mmHg 71%
    17:00 +18°C° 0 mm 4 mps 755 mmHg 75%
    18:00 +17°C° 0 mm 3 mps 755 mmHg 79%
    19:00 +16°C° 0 mm 3 mps 755 mmHg 84%
    20:00 +14°C° 0 mm 3 mps 756 mmHg 88%
    21:00 +13°C° 0 mm 3 mps 756 mmHg 89%
    22:00 +13°C° 0 mm 3 mps 756 mmHg 90%
    23:00 +13°C° 0 mm 4 mps 756 mmHg 91%

    1 May, Monday

    Time Temperature Precipitation Wind Pressure Humidity
    00:00 +12°C° 0 mm 4 mps 756 mmHg 92%
    01:00 +12°C° 0 mm 4 mps 756 mmHg 92%
    02:00 +10°C° 0 mm 5 mps 756 mmHg 93%
    03:00 +10°C° 0 mm 5 mps 756 mmHg 92%
    04:00 +10°C° 0 mm 5 mps 756 mmHg 91%
    05:00 +10°C° 0 mm 5 mps 757 mmHg 91%
    06:00 +10°C° 0 mm 5 mps 757 mmHg 87%
    07:00 +11°C° 0 mm 6 mps 757 mmHg 84%
    08:00 +11°C° 0 mm 6 mps 757 mmHg 81%
    09:00 +14°C° 0 mm 6 mps 758 mmHg 76%
    10:00 +15°C° 0 mm 6 mps 758 mmHg 70%
    11:00 +17°C° 0 mm 6 mps 758 mmHg 65%
    12:00 +19°C° 0 mm 6 mps 758 mmHg 64%
    13:00 +20°C° 0 mm 6 mps 757 mmHg 62%
    14:00 +20°C° 0 mm 6 mps 757 mmHg 60%
    15:00 +20°C° 0 mm 5 mps 757 mmHg 62%
    16:00 +20°C° 0 mm 5 mps 757 mmHg 64%
    17:00 +19°C° 0 mm 5 mps 757 mmHg 65%
    18:00 +17°C° 0 mm 4 mps 757 mmHg 73%
    19:00 +14°C° 0 mm 4 mps 757 mmHg 80%
    20:00 +12°C° 0 mm 3 mps 757 mmHg 87%
    21:00 +12°C° 0 mm 3 mps 757 mmHg 87%
    22:00 +11°C° 0 mm 3 mps 758 mmHg 87%
    23:00 +11°C° 0 mm 3 mps 758 mmHg 87%

    2 May, Tuesday

    Time Temperature Precipitation Wind Pressure Humidity
    00:00 +11°C° 0 mm 3 mps 757 mmHg 87%
    01:00 +11°C° 0 mm 4 mps 757 mmHg 87%
    02:00 +11°C° 0 mm 4 mps 757 mmHg 88%
    03:00 +11°C° 0 mm 4 mps 757 mmHg 89%
    04:00 +10°C° 0 mm 4 mps 757 mmHg 90%
    05:00 +9°C° 0 mm 5 mps 757 mmHg 91%
    06:00 +12°C° 0 mm 5 mps 757 mmHg 87%
    07:00 +13°C° 0 mm 5 mps 758 mmHg 82%
    08:00 +15°C° 0 mm 5 mps 758 mmHg 78%
    09:00 +17°C° 0 mm 5 mps 758 mmHg 73%
    10:00 +19°C° 0 mm 6 mps 758 mmHg 68%
    11:00 +21°C° 0 mm 6 mps 758 mmHg 63%
    12:00 +21°C° 0 mm 6 mps 758 mmHg 61%
    13:00 +22°C° 0 mm 6 mps 757 mmHg 59%
    14:00 +22°C° 0 mm 6 mps 757 mmHg 57%
    15:00 +22°C° 0 mm 6 mps 757 mmHg 59%
    16:00 +21°C° 0 mm 5 mps 757 mmHg 60%
    17:00 +21°C° 0 mm 5 mps 757 mmHg 61%
    18:00 +17°C° 0 mm 5 mps 757 mmHg 69%
    19:00 +15°C° 0 mm 4 mps 757 mmHg 77%
    20:00 +13°C° 0 mm 3 mps 757 mmHg 84%
    21:00 +12°C° 0 mm 3 mps 757 mmHg 83%
    22:00 +12°C° 0 mm 3 mps 757 mmHg 83%
    23:00 +12°C° 0 mm 3 mps 757 mmHg 82%
    Show more